St. Joseph, KS

7:07 PM CST on November 24, 2017 (GMT -0600)
Rosecrans Memorial

Weather History for KSTJ - February, 2014

Change the Weather History Date:

Saturday, February 1, 2014

  Actual Average Record
Temperature  
Mean Temperature 21 °F 29 °F  
Max Temperature 26 °F 39 °F 63 °F (1911)
Min Temperature 16 °F 19 °F -23 °F (1979)
Degree Days  
Heating Degree Days 44 36  
Month to date heating degree days 44 36  
Since 1 July heating degree days 3786 3419  
Cooling Degree Days 0 0  
Month to date cooling degree days 0 0  
Year to date cooling degree days 0 0  
Moisture  
Dew Point 15 °F    
Average Humidity 80    
Maximum Humidity 92    
Minimum Humidity 67    
Precipitation  
Precipitation 0.14 in 0.03 in 2.00 in (1985)
Month to date precipitation 0.14 0.03  
Year to date precipitation 0.22 0.59  
Sea Level Pressure  
Sea Level Pressure 30.02 in    
Wind  
Wind Speed 11 mph (North)    
Max Wind Speed 23 mph    
Max Gust Speed 28 mph    
Visibility 6 miles    
Events Fog , Snow    
T = Trace of Precipitation, MM = Missing Value Source: NWS Daily Summary

Daily Weather History Graph

Daily Weather History Graph

Search for Another Location

Airport or City:

Trip Planner

Search our weather history database for the weather conditions in past years. The results will help you decide how hot, cold, wet, or windy it might be!

Date:

Astronomy

Feb. 01, 2014 Rise Set
Actual Time 7:27 AM CST 5:39 PM CST
Civil Twilight 6:59 AM CST 6:07 PM CST
Nautical Twilight 6:26 AM CST 6:40 PM CST
Astronomical Twilight 5:55 AM CST 7:11 PM CST
Moon 8:18 AM CST (2/1) 8:15 PM CST (2/1)
Length of Visible Light 11h 08m
Length of Day
10h 11m
Waxing Crescent, 5% of the Moon is Illuminated
Feb 1
Waxing Crescent
Feb 6
First Quarter
Feb 14
Full
Feb 22
Last Quarter
Mar 1
New

Hourly Weather History & Observations

Time (CST) Temp. Windchill Dew Point Humidity Pressure Visibility Wind Dir Wind Speed Gust Speed Precip Events Conditions
12:11 AM 18.0 °F 7.7 °F 15.1 °F 88% 29.94 in 0.8 mi NNE 8.1 mph - 0.02 in Snow Light Snow
12:13 AM 18.0 °F 9.8 °F 15.1 °F 88% 29.95 in 1.0 mi North 5.8 mph - 0.02 in Snow Light Snow
12:35 AM 18.0 °F 11.1 °F 15.1 °F 88% 29.94 in 1.2 mi NNE 4.6 mph - 0.03 in Snow Light Snow
12:53 AM 18.0 °F 9.8 °F 15.1 °F 88% 29.98 in 1.8 mi NNE 5.8 mph - 0.03 in Snow Light Snow
1:23 AM 18.0 °F 7.7 °F 15.1 °F 88% 29.94 in 0.8 mi North 8.1 mph - 0.03 in Snow Light Snow
1:27 AM 18.0 °F 8.7 °F 15.1 °F 88% 29.93 in 0.5 mi North 6.9 mph - 0.04 in Fog , Snow Snow
1:42 AM 18.0 °F 8.7 °F 15.1 °F 88% 29.92 in 0.8 mi North 6.9 mph - 0.06 in Snow Light Snow
1:53 AM 18.0 °F 7.7 °F 15.1 °F 88% 29.95 in 0.8 mi NNE 8.1 mph - 0.08 in Snow Light Snow
2:00 AM 18.0 °F 8.7 °F 15.1 °F 88% 29.91 in 0.5 mi NNE 6.9 mph - 0.00 in Fog , Snow Snow
2:17 AM 18.0 °F 11.1 °F 15.1 °F 88% 29.90 in 0.8 mi North 4.6 mph - 0.02 in Snow Light Snow
2:26 AM 18.0 °F 8.7 °F 15.1 °F 88% 29.92 in 1.2 mi NNW 6.9 mph - 0.03 in Snow Light Snow
2:38 AM 18.0 °F 8.7 °F 15.1 °F 88% 29.91 in 1.5 mi North 6.9 mph - 0.03 in Snow Light Snow
2:53 AM 18.0 °F 5.4 °F 15.1 °F 88% 29.92 in 1.8 mi North 11.5 mph - 0.04 in Snow Light Snow
2:59 AM 18.0 °F 5.4 °F 15.1 °F 88% 29.89 in 3.0 mi North 11.5 mph - 0.00 in Snow Light Snow
3:06 AM 18.0 °F 6.1 °F 15.1 °F 88% 29.91 in 4.0 mi North 10.4 mph - 0.00 in Snow Light Snow
3:53 AM 19.0 °F 6.8 °F 15.1 °F 85% 29.94 in 4.0 mi North 11.5 mph - 0.00 in Snow Light Snow
4:42 AM 19.0 °F 6.8 °F 15.1 °F 85% 29.90 in 2.5 mi North 11.5 mph - 0.00 in Snow Light Snow
4:53 AM 19.0 °F 6.1 °F 15.1 °F 85% 29.94 in 2.0 mi North 12.7 mph - 0.00 in Snow Light Snow
5:01 AM 19.0 °F 6.8 °F 15.1 °F 85% 29.90 in 3.0 mi North 11.5 mph - 0.00 in Snow Light Snow
5:53 AM 19.0 °F 10.0 °F 15.1 °F 85% 29.96 in 10.0 mi NNE 6.9 mph - 0.00 in   Overcast
6:53 AM 19.9 °F 10.1 °F 15.1 °F 81% 29.96 in 10.0 mi North 8.1 mph - N/A   Overcast
7:53 AM 19.9 °F 7.9 °F 15.1 °F 81% 29.98 in 10.0 mi North 11.5 mph - N/A   Overcast
8:53 AM 19.9 °F 10.1 °F 15.1 °F 81% 30.01 in 10.0 mi North 8.1 mph - N/A   Overcast
9:53 AM 21.0 °F 9.9 °F 15.1 °F 78% 30.02 in 10.0 mi North 10.4 mph - N/A   Overcast
10:40 AM 21.9 °F 13.4 °F 16.0 °F 78% 30.01 in 10.0 mi NNW 6.9 mph - N/A   Overcast
10:53 AM 21.9 °F 11.7 °F 16.0 °F 78% 30.04 in 10.0 mi North 9.2 mph - N/A   Overcast
11:53 AM 23.0 °F 12.4 °F 16.0 °F 74% 30.06 in 10.0 mi North 10.4 mph - N/A   Mostly Cloudy
12:53 PM 23.0 °F 12.4 °F 16.0 °F 74% 30.06 in 10.0 mi NNW 10.4 mph - N/A   Clear
1:53 PM 25.0 °F 14.8 °F 17.1 °F 72% 30.04 in 10.0 mi North 10.4 mph - N/A   Clear
2:53 PM 25.0 °F 14.2 °F 18.0 °F 75% 30.05 in 10.0 mi North 11.5 mph - N/A   Clear
3:53 PM 25.0 °F 16.3 °F 18.0 °F 75% 30.09 in 10.0 mi North 8.1 mph - N/A   Scattered Clouds
4:04 PM 25.0 °F 16.3 °F 19.0 °F 78% 30.06 in 10.0 mi North 8.1 mph - N/A   Mostly Cloudy
4:53 PM 26.1 °F 14.5 °F 19.0 °F 75% 30.12 in 10.0 mi NNW 13.8 mph - N/A   Overcast
5:53 PM 26.1 °F 16.2 °F 19.9 °F 78% 30.14 in 9.0 mi NNW 10.4 mph - N/A   Overcast
6:53 PM 25.0 °F 12.6 °F 16.0 °F 69% 30.20 in 10.0 mi North 15.0 mph 23.0 mph N/A   Overcast
7:53 PM 23.0 °F 8.3 °F 15.1 °F 72% 30.22 in 10.0 mi North 19.6 mph - N/A   Overcast
8:14 PM 21.9 °F 6.5 °F 15.1 °F 75% 30.20 in 10.0 mi North 20.7 mph - N/A   Scattered Clouds
8:53 PM 19.9 °F 4.8 °F 12.0 °F 71% 30.27 in 10.0 mi North 18.4 mph - N/A   Partly Cloudy
9:53 PM 19.0 °F 5.6 °F 10.9 °F 71% 30.30 in 10.0 mi North 13.8 mph - N/A   Scattered Clouds
10:53 PM 18.0 °F 5.4 °F 10.0 °F 71% 30.31 in 10.0 mi North 11.5 mph - N/A   Mostly Cloudy
11:53 PM 16.0 °F 0.1 °F 8.1 °F 71% 30.32 in 10.0 mi North 17.3 mph - N/A   Scattered Clouds